AO-07 1 07530U 74089B 22027.58309111 -.00000021 00000-0 15841-3 0 9990 2 07530 101.8875 7.1045 0012108 313.1255 161.2596 12.53652570159816 UO-11 1 14781U 84021B 22027.75530374 .00000364 00000-0 50374-4 0 9999 2 14781 97.6066 21.7175 0009845 68.1422 292.0838 14.83422525 40180 LO-19 1 20442U 90005G 22027.48051469 .00000045 00000-0 33270-4 0 9994 2 20442 98.7745 350.3461 0011001 218.9490 141.0901 14.33018304672910 HUBBLE 1 20580U 90037B 22027.68628769 .00001237 00000-0 63361-4 0 9995 2 20580 28.4714 21.0932 0002401 322.2498 199.7319 15.09973141545189 MET-2/21 1 22782U 93055A 22027.80915432 .00000014 00000-0 -98487-6 0 9996 2 22782 82.5504 125.8741 0022699 25.5047 91.8032 13.83844189434829 AO-27 1 22825U 93061C 22027.54118432 .00000024 00000-0 27250-4 0 9995 2 22825 98.9030 55.4839 0009493 101.4037 258.8211 14.30141389478016 IO-26 1 22826U 93061D 22027.66815111 .00000026 00000-0 27681-4 0 9997 2 22826 98.8973 55.5030 0010029 89.4156 270.8175 14.30483259478535 FO-29 1 24278U 96046B 22027.57095536 -.00000038 00000-0 78235-6 0 9994 2 24278 98.5365 70.5161 0349292 288.8304 67.5260 13.53109735256559 NOAA-15 1 25338U 98030A 22027.81781558 .00000057 00000-0 42357-4 0 9994 2 25338 98.6610 59.0779 0010132 353.2952 6.8090 14.26085188233224 GO-32 1 25397U 98043D 22027.80439181 .00000005 00000-0 21635-4 0 9993 2 25397 98.8005 338.0421 0001957 124.6137 235.5226 14.23729521223632 ISS 1 25544U 98067A 22027.75547926 .00007563 00000-0 14194-3 0 9991 2 25544 51.6451 312.0370 0006903 67.9238 24.2396 15.49669141323407 NO-44 1 26931U 01043C 22027.51822798 .00000014 00000-0 37234-4 0 9992 2 26931 67.0510 62.1590 0007074 280.1622 79.8681 14.30657261 61241 SO-50 1 27607U 02058C 22027.66395368 .00000362 00000-0 71211-4 0 9993 2 27607 64.5558 12.6418 0067727 322.8082 36.8339 14.75887064 27802 CO-55 1 27844U 03031E 22027.74069382 .00000122 00000-0 74564-4 0 9999 2 27844 98.6805 37.5443 0010470 144.7782 215.4089 14.22373606963904 CO-57 1 27848U 03031J 22027.59006120 .00000100 00000-0 65106-4 0 9995 2 27848 98.6855 37.9399 0010148 158.2284 201.9327 14.21941635963699 RS-22 1 27939U 03042A 22027.77700931 .00000417 00000-0 82968-4 0 9995 2 27939 98.1679 168.7490 0011597 294.2940 65.7056 14.67114973980414 NOAA-18 1 28654U 05018A 22027.83058660 .00000033 00000-0 41965-4 0 9993 2 28654 98.9675 98.2834 0014265 12.9874 347.1662 14.12681037860213 CO-58 1 28895U 05043F 22027.60650529 .00000388 00000-0 82899-4 0 9999 2 28895 98.0848 161.3743 0015951 221.2411 138.7588 14.64066432867030 Falconsat-3 1 30776U 07006E 22027.52425396 .00012558 00000-0 26232-3 0 9994 2 30776 35.4336 96.7606 0002929 173.1680 186.9089 15.44695473827726 CO-65 1 32785U 08021C 22027.80614761 .00000891 00000-0 10019-3 0 9994 2 32785 97.6397 3.3256 0012501 346.9570 13.1323 14.89016932745620 AAUSAT2 1 32788U 08021F 22027.51605945 .00002534 00000-0 22937-3 0 9997 2 32788 97.5223 18.0602 0009962 231.3736 128.6595 14.96216783747355 DO-64 1 32789U 08021G 22027.58656849 .00004235 00000-0 26014-3 0 9994 2 32789 97.3560 59.2245 0012977 91.4954 268.7763 15.10532199750744 CO-66 1 32791U 08021J 22027.75993254 .00001411 00000-0 14498-3 0 9996 2 32791 97.5960 8.9417 0011734 303.4786 56.5311 14.91832272746294 RS-30 1 32953U 08025A 22027.85585667 .00000021 00000-0 80971-4 0 9992 2 32953 82.5019 271.3617 0018744 206.3059 153.7066 12.43106994620864 PRISM 1 33493U 09002B 22027.83756468 .00001601 00000-0 13957-3 0 9999 2 33493 98.2186 6.6586 0012856 266.0830 93.8921 14.98407566707923 NOAA-19 1 33591U 09005A 22027.67447993 .00000055 00000-0 55024-4 0 9997 2 33591 99.1658 58.7339 0013353 220.5558 139.4619 14.12525177668578 SRMSAT 1 37841U 11058D 22027.66651785 .00000303 00000-0 21345-4 0 9990 2 37841 19.9736 25.8993 0011667 236.5344 279.9625 14.10722487531560 HRBE 1 37855U 11061F 22027.55761406 .00003928 00000-0 18786-3 0 9999 2 37855 101.7184 72.6899 0161946 123.4727 238.2086 15.09359693559969 RS-40 1 38735U 12041C 22027.83299057 -.00000004 00000-0 -96764-4 0 9992 2 38735 82.4800 353.1807 0016811 321.8869 38.1023 12.42583581431050 ZACUBE-1 1 39417U 13066B 22027.66493197 .00000630 00000-0 83903-4 0 9994 2 39417 97.6192 5.7248 0059173 144.9512 215.5618 14.81794025442275 Delfi-N3xt 1 39428U 13066N 22027.57456601 .00001509 00000-0 24230-3 0 9998 2 39428 97.8040 328.1715 0119448 8.7695 351.5560 14.68405685437854 GOMX-1 1 39430U 13066Q 22027.89047325 .00000429 00000-0 85237-4 0 9990 2 39430 97.8157 303.0970 0151113 127.5500 233.9550 14.59821695435786 LO-74 1 39440U 13066AA 22027.38353706 .00000637 00000-0 94201-4 0 9990 2 39440 97.7079 351.0853 0078280 228.4708 130.9770 14.76514210439466 AO-73 1 39444U 13066AE 22027.84582574 .00000803 00000-0 10275-3 0 9995 2 39444 97.6082 8.2894 0058380 133.5967 227.0114 14.82757060441272 SPROUT 1 39770U 14029E 22027.89421176 .00002897 00000-0 31189-3 0 9994 2 39770 97.9290 144.2991 0008730 181.9016 178.2182 14.89249576416733 DTUSAT-2 1 40030U 14033W 22027.78507672 .00000791 00000-0 89351-4 0 9990 2 40030 97.9298 320.1411 0012338 150.6033 209.5880 14.89317568413215 EO-80 1 40032U 14033Y 22027.55264298 .00000920 00000-0 10302-3 0 9994 2 40032 97.9305 319.9189 0012218 152.3534 207.8335 14.89280985412640 HODOYOSHI-1 1 40299U 14070B 22027.83700765 .00002450 00000-0 99377-4 0 9995 2 40299 97.2622 100.1291 0010824 277.0922 190.5245 15.25499314401613 FIREBIRD FU3 1 40377U 15003B 22027.76783162 .00008327 00000-0 28093-3 0 9998 2 40377 99.1129 221.7774 0110972 139.6938 221.2588 15.25266842386953 FIREBIRD FU4 1 40378U 15003C 22027.80113024 .00008920 00000-0 29992-3 0 9996 2 40378 99.1135 221.9991 0110972 139.3085 221.6506 15.25341583386965 GRIFEX 1 40379U 15003D 22027.78215419 .00007592 00000-0 29084-3 0 9991 2 40379 99.1157 209.2788 0123081 177.3621 182.8286 15.20078424386246 XW-2A 1 40903U 15049E 22027.84196855 .00009394 00000-0 18072-3 0 9990 2 40903 97.2058 86.5762 0009570 276.7476 203.6086 15.48077542357477 XW-2C 1 40906U 15049H 22027.82535103 .00002467 00000-0 12598-3 0 9995 2 40906 97.4927 32.5470 0015804 124.5026 357.4650 15.17535072351586 XW-2D 1 40907U 15049J 22027.82361370 .00002792 00000-0 14048-3 0 9992 2 40907 97.4916 32.4320 0015182 120.2994 317.7343 15.17963469351622 LILACSAT-2 1 40908U 15049K 22027.83602781 .00001211 00000-0 68449-4 0 9998 2 40908 97.5135 29.9423 0016558 138.5399 305.2200 15.14903609351194 XW-2E 1 40909U 15049L 22027.85582384 .00004437 00000-0 20350-3 0 9998 2 40909 97.4683 36.7535 0014538 104.8864 18.0312 15.20870979352027 XW-2F 1 40910U 15049M 22027.86684094 .00004520 00000-0 21021-3 0 9991 2 40910 97.4757 35.8694 0015589 104.9996 14.6909 15.20363360351801 XW-2B 1 40911U 15049N 22027.84041964 .00002801 00000-0 14129-3 0 9994 2 40911 97.4911 33.0891 0015004 121.4871 322.5082 15.17870814351515 DCBB 1 40912U 15049P 22027.80923874 .00005187 00000-0 22236-3 0 9998 2 40912 97.4421 40.1848 0015670 77.7183 47.8667 15.23080199352323 TW-1A 1 40928U 15051D 22027.83184407 .00015518 00000-0 27528-3 0 9990 2 40928 97.0599 52.6557 0008544 172.8048 308.1972 15.50275464356390 IO-86 1 40931U 15052B 22026.69290886 .00000765 00000-0 17205-4 0 9997 2 40931 5.9985 100.2307 0013903 324.4750 35.4373 14.76723554342355 ATHENOXAT-1 1 41168U 15077C 22027.31442442 .00006588 00000-0 28440-3 0 9995 2 41168 14.9869 53.4574 0010746 59.6433 40.9153 15.17396632338813 ChubuSat-2 1 41338U 16012B 22026.89450964 .00000980 00000-0 68534-4 0 9993 2 41338 31.0013 204.8200 0013483 189.3356 170.7030 15.00816573326194 ChubuSat-3 1 41339U 16012C 22027.76152441 .00000926 00000-0 64169-4 0 9990 2 41339 31.0099 196.3222 0013274 205.9466 154.0521 15.00941651326324 Horyu-4 1 41340U 16012D 22027.09712921 .00001650 00000-0 11510-3 0 9999 2 41340 31.0034 181.1707 0013587 235.5647 124.3705 15.02371098326443 e-st@r-II 1 41459U 16025D 22027.89511244 .00004499 00000-0 21207-3 0 9995 2 41459 98.1677 183.1874 0154924 25.8450 335.0436 15.10015915316264 AAUSAT4 1 41460U 16025E 22027.87403876 .00006662 00000-0 29147-3 0 9991 2 41460 98.1634 188.2897 0139625 5.6946 354.5819 15.14000493316638 LO-87 1 41557U 16033B 22027.90380639 .00006202 00000-0 20768-3 0 9992 2 41557 97.3898 125.7969 0012792 151.7562 344.4926 15.31230824315858 NuSat2 1 41558U 16033C 22027.72988792 .00006003 00000-0 18833-3 0 9996 2 41558 97.4051 130.5552 0012036 143.7452 13.3953 15.33355343316065 Lapan A3 1 41603U 16040E 22027.86343404 .00000549 00000-0 28304-4 0 9999 2 41603 97.2275 70.8912 0011837 299.7750 165.0455 15.20260357310678 Pratham 1 41783U 16059A 22027.63202589 .00000169 00000-0 41679-4 0 9999 2 41783 97.9353 74.6842 0032190 258.1183 101.6409 14.63222871285030 TY-1 1 41844U 16066D 22027.81753853 .00006014 00000-0 22877-3 0 9993 2 41844 97.3961 40.7975 0016000 68.3946 48.6398 15.27020217290122 CAS-2T 1 41847U 16066G 22027.76421254 .00000321 00000-0 59475-4 0 9997 2 41847 98.5719 92.4791 0363600 270.5186 85.4357 14.38335389274129 EO-88 1 42017U 17008BX 22027.11321397 .00006871 00000-0 23687-3 0 9991 2 42017 97.2901 95.6275 0006552 45.3808 314.7966 15.30299511275437 CAS-4B 1 42759U 17034B 22027.86547016 .00001779 00000-0 11840-3 0 9993 2 42759 43.0179 26.9093 0006808 132.0218 298.1818 15.10780962255087 CAS-4A 1 42761U 17034D 22027.84279644 .00001931 00000-0 12714-3 0 9994 2 42761 43.0181 25.9249 0007064 131.0994 295.4415 15.10869824255088 NIUSat 1 42766U 17036B 22027.71866693 .00003653 00000-0 15337-3 0 9990 2 42766 97.2235 70.6714 0016286 103.6409 256.6644 15.23949964255351 Aalto 1 1 42775U 17036L 22027.58156182 .00003125 00000-0 13276-3 0 9994 2 42775 97.2196 70.6392 0014893 103.1190 257.1711 15.23673483255310 URSA MAIOR 1 42776U 17036M 22027.66991321 .00003387 00000-0 14207-3 0 9991 2 42776 97.2210 71.3335 0014651 101.9881 258.3000 15.24048466255354 Max Valier Sat 1 42778U 17036P 22027.58101475 .00003177 00000-0 13074-3 0 9995 2 42778 97.2279 73.5996 0013180 103.7696 256.5010 15.24764241255423 Pegasus 1 42784U 17036V 22027.70757483 .00004361 00000-0 17250-3 0 9998 2 42784 97.2224 74.3551 0012667 104.8258 255.4385 15.25902545255538 NUDATSat 1 42787U 17036Y 22027.63915032 .00007914 00000-0 28541-3 0 9991 2 42787 97.2254 77.5581 0011653 96.2247 264.0321 15.28723894255557 SUCHAI 1 1 42788U 17036Z 22027.57049103 .00005388 00000-0 20547-3 0 9993 2 42788 97.2231 75.5460 0012129 101.6726 258.5875 15.27024359255662 SKCUBE 1 42789U 17036AA 22027.58136750 .00004932 00000-0 19063-3 0 9995 2 42789 97.2228 75.1454 0012095 102.3462 257.9131 15.26615831255562 VZLUSAT 1 1 42790U 17036AB 22027.37721371 .00007511 00000-0 27155-3 0 9990 2 42790 97.2260 77.2867 0011217 97.5130 262.7385 15.28664954255661 VENTA 1 1 42791U 17036AC 22027.57894514 .00004262 00000-0 16620-3 0 9998 2 42791 97.2225 75.1117 0011761 102.8752 257.3801 15.26395653255558 Robusta 1B 1 42792U 17036AD 22027.70663212 .00005108 00000-0 19544-3 0 9991 2 42792 97.2227 75.7437 0011688 102.0077 258.2473 15.26943875255620 D-SAT 1 42794U 17036AF 22027.80220691 .00000677 00000-0 62888-4 0 9990 2 42794 97.4539 40.6949 0124246 195.2183 164.5286 14.91947077250531 TechnoSat 1 42829U 17042E 22027.61582633 .00000623 00000-0 67331-4 0 9991 2 42829 97.4383 249.8380 0015480 115.5662 244.7160 14.91491844247090 QIKCOM-1 1 42983U 98067NF 22027.71832966 .00026650 00000-0 18233-3 0 9990 2 42983 51.6323 194.7138 0002602 130.6694 229.4532 15.74574132242633 AO-91 1 43017U 17073E 22027.68556353 .00002356 00000-0 18541-3 0 9995 2 43017 97.6909 287.6148 0251196 288.4701 68.9361 14.80258510226284 PICSAT 1 43132U 18004X 22027.75866631 .00005789 00000-0 21651-3 0 9998 2 43132 97.3883 105.2389 0009648 130.9158 229.2918 15.27676792224907 AO-92 1 43137U 18004AC 22027.15852000 .00004693 00000-0 18152-3 0 9997 2 43137 97.3853 103.7976 0009434 134.9334 225.2671 15.26659961224772 TianYi 2 1 43155U 18008A 22027.82474557 .00003163 00000-0 18022-3 0 9999 2 43155 97.3743 90.8002 0015237 273.4258 219.1905 15.13415702221990 Zhou Enlai 1 43156U 18008B 22027.87163888 .00003086 00000-0 17772-3 0 9992 2 43156 97.3789 90.6942 0012453 273.1800 174.5603 15.13079140221934 TianYi 6 1 43158U 18008D 22027.78157950 .00003022 00000-0 17767-3 0 9991 2 43158 97.3734 88.8394 0011978 274.6843 208.8628 15.12359781221838 S-Net D 1 43186U 18014G 22027.71711459 .00000197 00000-0 21913-4 0 9991 2 43186 97.6683 296.1289 0012162 53.4038 306.8301 14.97354596217852 S-Net B 1 43187U 18014H 22027.71712817 .00000205 00000-0 22651-4 0 9991 2 43187 97.6680 296.0867 0012158 53.3241 306.9097 14.97353794217853 S-Net A 1 43188U 18014J 22027.71733970 .00000199 00000-0 22063-4 0 9994 2 43188 97.6684 296.1424 0012153 53.4294 306.8044 14.97352792217850 S-Net C 1 43189U 18014K 22027.71788740 .00000206 00000-0 22678-4 0 9991 2 43189 97.6678 296.0778 0012123 53.3165 306.9169 14.97351522216407 FMN 1 1 43192U 18015A 22027.84685505 .00012123 00000-0 40248-3 0 9998 2 43192 97.5137 170.1871 0013183 165.3852 340.9370 15.31293705221887 Shaonian Xing 1 43199U 18015H 22027.86831484 .00008002 00000-0 27948-3 0 9999 2 43199 97.4917 166.4034 0014858 174.5166 307.4954 15.29748757221928 SurfSat 1 43614U 18070B 22027.51097226 .00012074 00000-0 24766-3 0 9991 2 43614 93.0206 39.4565 0011431 198.0343 162.0511 15.45957958189237 CP-7 DAVE 1 43615U 18070C 22027.51560770 .00011335 00000-0 23624-3 0 9992 2 43615 93.0210 39.3759 0011612 199.0226 161.0600 15.45490618189210 ELFIN-B 1 43616U 18070D 22027.55109744 .00017838 00000-0 30797-3 0 9990 2 43616 93.0152 39.9846 0011051 188.5070 171.6005 15.50888842189421 ELFIN-A 1 43617U 18070E 22027.54671122 .00017454 00000-0 29238-3 0 9996 2 43617 93.0213 41.0792 0010606 184.2662 175.8511 15.51745553189452 CubeBel-1 1 43666U 18083E 22027.88870547 .00004510 00000-0 20801-3 0 9999 2 43666 97.4371 58.3295 0015955 104.1769 18.3416 15.20641960180100 Changshagaoxin 1 43669U 18083H 22027.86587157 .00004037 00000-0 19409-3 0 9998 2 43669 97.4293 54.7069 0011977 100.6845 16.8015 15.19316902179942 Ten-Koh 1 43677U 18084G 22027.80485489 .00000410 00000-0 47609-4 0 9992 2 43677 97.9436 156.8186 0016340 20.1759 340.0101 14.90682094176725 PO-101 1 43678U 18084H 22027.74865612 .00000447 00000-0 49921-4 0 9995 2 43678 97.9482 159.5977 0010864 36.9497 323.2453 14.91894954176874 IRVINE 01 1 43693U 18088D 22027.53765993 .00011355 00000-0 39857-3 0 9990 2 43693 85.0313 45.6523 0012072 276.4015 83.5856 15.29207110178637 QO-100 1 43700U 18090A 22027.49893818 .00000151 00000-0 00000 0 0 9991 2 43700 0.0176 66.4941 0002228 282.8835 342.7843 1.00271914 11851 Reaktor Hello World 1 43743U 18096AA 22027.78390195 .00005331 00000-0 18252-3 0 9993 2 43743 97.3671 108.5595 0015930 195.6008 164.4744 15.30539711176421 MinXSS-2 1 43758U 18099A 22027.73725665 .00001614 00000-0 14682-3 0 9994 2 43758 97.6430 99.0248 0015703 23.3366 336.8565 14.96502027172056 AO-95 1 43770U 18099N 22027.73119455 .00001351 00000-0 12623-3 0 9993 2 43770 97.6402 97.6894 0015003 32.9947 327.2207 14.95703867171975 RANGE-B 1 43772U 18099Q 22027.70732175 .00000863 00000-0 81621-4 0 9994 2 43772 97.6502 99.0435 0014314 19.5380 340.6387 14.96123895171988 RANGE-A 1 43773U 18099R 22027.15685828 .00000401 00000-0 41286-4 0 9997 2 43773 97.6333 96.2074 0013968 22.6884 337.4952 14.95497180171877 MOVE-II 1 43780U 18099Y 22027.72164850 .00001653 00000-0 15012-3 0 9992 2 43780 97.6427 98.5192 0013586 28.8128 331.3842 14.96539095172000 SNUSat 2 1 43782U 18099AA 22027.72944294 .00001135 00000-0 10633-3 0 9991 2 43782 97.6402 98.1063 0012860 20.0214 340.1509 14.95915733171993 SnugLite 1 43784U 18099AC 22027.71718828 .00000937 00000-0 88288-4 0 9995 2 43784 97.6363 97.7644 0015306 25.6578 334.5400 14.96069222172018 ITASat 1 1 43786U 18099AE 22027.74327014 .00001280 00000-0 11910-3 0 9992 2 43786 97.6428 98.5338 0015590 26.0807 334.1197 14.95949432172014 EAGLET 1 1 43790U 18099AJ 22027.72794097 .00000853 00000-0 80473-4 0 9990 2 43790 97.6413 99.0157 0013823 29.7356 330.4648 14.96246572171749 ESEO 1 43792U 18099AL 22027.15255968 .00000441 00000-0 44412-4 0 9994 2 43792 97.6379 97.8458 0014000 29.2510 330.9492 14.95903734171704 CSIM 1 43793U 18099AM 22027.15612238 .00001647 00000-0 14715-3 0 9993 2 43793 97.6438 98.7078 0013294 24.7517 335.4341 14.97208094171735 Astrocast 0.1 1 43798U 18099AS 22027.77056304 .00000994 00000-0 92072-4 0 9999 2 43798 97.6427 99.3683 0012421 8.7484 351.3952 14.96642207172062 JO-97 1 43803U 18099AX 22027.73212652 .00001443 00000-0 13257-3 0 9999 2 43803 97.6386 98.2598 0015344 25.5148 334.6827 14.96275162172020 Suomi 100 1 43804U 18099AY 22027.14134520 .00001510 00000-0 13863-3 0 9990 2 43804 97.6387 97.6280 0015593 27.7251 332.4798 14.96225816171942 Al Farabi 2 1 43805U 18099AZ 22027.90526385 .00000783 00000-0 73680-4 0 9994 2 43805 97.6404 98.7299 0015658 24.1445 336.0505 14.96559553172072 CHOMPTT 1 43855U 18104G 22027.81196976 .00003867 00000-0 15170-3 0 9990 2 43855 85.0385 144.7264 0017716 43.6231 316.6409 15.25235218173278 ISAT 1 43879U 18111D 22027.54293366 .00001481 00000-0 13316-3 0 9995 2 43879 97.6751 295.7195 0014313 74.4769 285.8032 14.97091269168589 UWE-4 1 43880U 18111E 22027.69755061 .00001699 00000-0 15126-3 0 9990 2 43880 97.6785 296.4829 0013962 74.5539 285.7224 14.97310686166638 Sparrow 1 43881U 18111F 22027.72528601 .00000856 00000-0 78507-4 0 9990 2 43881 97.6787 296.6926 0013525 70.8293 289.4391 14.97386234166641 Lume 1 1 43908U 18111AJ 22027.66658818 .00004186 00000-0 15673-3 0 9991 2 43908 97.2108 280.0248 0018498 211.1883 148.8260 15.27670081171882 FO-98 1 43933U 19003B 22027.55815699 .00047620 00000-0 12210-2 0 9993 2 43933 97.1588 66.6744 0010032 317.2880 42.7585 15.39157646168407 FO-99 1 43937U 19003F 22027.58506779 .00005314 00000-0 19957-3 0 9996 2 43937 97.1510 66.6233 0020544 298.8831 61.0347 15.27405003168453 MYSat 1 1 44045U 18092F 22027.49196791 .00014069 00000-0 30800-3 0 9990 2 44045 51.6366 49.9935 0008824 309.0504 50.9697 15.44358524166020 AstroCast 0.2 1 44083U 19018F 22027.78340062 .00005717 00000-0 23741-3 0 9991 2 44083 97.3450 89.4674 0010735 263.6993 96.3022 15.24167326157047 AISTechSat 3 1 44103U 19018AB 22027.73168925 .00003628 00000-0 14691-3 0 9998 2 44103 97.3313 89.8574 0011141 273.6123 86.3841 15.25254371157180 AISat 1 1 44104U 19018AC 22027.81718062 .00003412 00000-0 10411-3 0 9998 2 44104 97.4073 110.6026 0053409 276.2262 83.2898 15.33246967158030 Prox-1 1 44339U 19036A 22027.13704837 .00001688 00000-0 34240-3 0 9997 2 44339 24.0015 4.9030 0011724 109.4310 250.7449 14.54125333137751 Oculus-ASR 1 44348U 19036K 22027.38725863 .00032075 00000-0 38752-3 0 9992 2 44348 28.5108 74.4616 0294374 185.9289 173.7774 15.21600507142930 Armadillo 1 44352U 19036P 22027.66185331 .00056618 -57725-5 55368-3 0 9991 2 44352 28.5297 28.1372 0239834 258.6739 98.6824 15.35933551143370 NO-104 1 44354U 19036R 22027.35907088 .00034337 00000-0 40084-3 0 9991 2 44354 28.5287 64.1952 0287751 199.9842 158.9280 15.23612958143028 NO-103 1 44355U 19036S 22027.50489457 .00128762 -23688-5 86859-3 0 9993 2 44355 28.5240 327.2523 0170489 357.2629 2.7036 15.56324226144004 Move-IIb 1 44398U 19038N 22027.90889649 .00005159 00000-0 27597-3 0 9998 2 44398 97.6111 356.5071 0021572 254.0559 105.8296 15.15313866141735 SONATE 1 44400U 19038Q 22027.60485990 .00002046 00000-0 11823-3 0 9997 2 44400 97.6202 355.8031 0022726 258.3970 101.4703 15.13262796141620 BeeSat 9 1 44412U 19038AC 22027.82227445 .00003208 00000-0 17728-3 0 9994 2 44412 97.6182 356.5137 0019656 260.1545 99.7467 15.14481998141390 JAISAT-1 1 44419U 19038F 22027.39005927 .00004248 00000-0 23052-3 0 9994 2 44419 97.6187 356.8065 0018642 259.0991 100.8143 15.14961244141685 LightSail-2 1 44420U 19036AC 22027.48112971 .00014824 00000-0 26745-2 0 9994 2 44420 24.0043 324.8311 0020391 166.3292 193.7757 14.64717488136420 Taurus 1 1 44530U 19059C 22027.81716666 .00001098 00000-0 31750-3 0 9991 2 44530 98.5478 125.0909 0014459 180.1932 179.9249 14.46459232125517 Duchifat 3 1 44854U 19089C 22027.76721137 .00001511 00000-0 12538-3 0 9999 2 44854 36.9639 213.6642 0006360 162.3485 197.7483 15.00022675116792 OPS-SAT 1 44878U 19092F 22027.39960610 .00004562 00000-0 22932-3 0 9997 2 44878 97.4752 212.8372 0014590 109.4175 250.8637 15.17665444116785 TO-108 1 44881U 19093C 22027.76952847 .00000251 00000-0 38648-4 0 9999 2 44881 97.9058 108.9455 0013698 286.2954 73.6746 14.81549890113940 FloripaSat 1 1 44885U 19093G 22027.78560136 .00000838 00000-0 11069-3 0 9999 2 44885 97.9083 109.9218 0013217 292.7779 67.2037 14.82588675114009 RS-44 1 44909U 19096E 22027.54079814 -.00000006 00000-0 -61560-4 0 9992 2 44909 82.5244 323.9115 0216408 289.3593 68.4226 12.79712066 97484 Phoenix 1 45258U 98067RB 22027.55582665 .00035233 00000-0 34254-3 0 9996 2 45258 51.6364 281.6127 0003299 35.6146 324.5069 15.65940396110195 QARMAN 1 45263U 98067RG 22027.79778141 .00511566 12951-3 83830-3 0 9997 2 45263 51.6251 254.4803 0005409 217.5252 142.5382 16.02617461110630 Quetzal 1 1 45598U 98067RL 22027.82252245 .00166787 00000-0 66935-3 0 9991 2 45598 51.6330 266.0796 0005017 180.3689 179.7312 15.85448291 99752 BY70-2 1 45857U 20042B 22027.82080771 .00002858 00000-0 40326-3 0 9994 2 45857 97.9680 106.1657 0010724 203.2619 156.8097 14.77960729 84676 UPMSat 2 1 46276U 20061E 22027.13699827 .00001918 00000-0 10027-3 0 9994 2 46276 97.4097 101.1930 0000892 29.1812 330.9471 15.17051089 77446 AmicalSat 1 46287U 20061R 22027.77217875 .00001779 00000-0 10961-3 0 9997 2 46287 97.4648 100.9181 0003897 61.6090 298.5532 15.11223152 77210 SALSAT 1 46495U 20068K 22027.39673973 .00000611 00000-0 48835-4 0 9994 2 46495 97.7143 328.8620 0018153 38.5370 321.7107 15.03804900 72981 BY70-3 1 46839U 20079N 22027.86452603 .00009368 00000-0 26584-3 0 9999 2 46839 97.2175 102.3127 0008136 115.8156 355.6562 15.36391627 68621 SPOC 1 46921U 98067RR 22027.29155031 .00035039 00000-0 38073-3 0 9995 2 46921 51.6388 294.2011 0002501 162.7114 197.3966 15.63127244 69746 Bobcat-1 1 46922U 98067RS 22027.77757565 .00070607 00000-0 53518-3 0 9990 2 46922 51.6394 283.9767 0003489 170.1529 189.9538 15.71705287 69881 Neutron-1 1 46923U 98067RT 22027.32509345 .00034022 00000-0 37131-3 0 9997 2 46923 51.6396 294.4293 0002252 168.1349 191.9699 15.63029483 69787 CAPE 3 1 47309U 21002A 22027.56230476 .00004876 00000-0 22047-3 0 9997 2 47309 60.6826 173.3803 0028869 173.0477 187.1016 15.22141446 56982 AO-109 1 47311U 21002C 22027.54591544 .00004527 00000-0 20136-3 0 9994 2 47311 60.6845 171.6474 0025910 164.8502 195.3367 15.22923045 56985 MiTEE 1 1 47314U 21002F 22027.73262131 .00008554 00000-0 34240-3 0 9990 2 47314 60.6830 167.3450 0028162 155.2170 205.0278 15.25467934 57091 ExoCube 2 1 47319U 21002L 22027.57220560 .00004034 00000-0 18275-3 0 9996 2 47319 60.6839 172.3001 0026391 168.5141 191.6553 15.22533337 56947 UVSQ-SAT 1 47438U 21006AB 22027.11301382 .00002893 00000-0 16264-3 0 9991 2 47438 97.4595 89.0609 0013581 50.3707 309.8721 15.13996230 55884 YUSAT 1 1 47439U 21006AC 22027.70294380 .00003138 00000-0 17548-3 0 9995 2 47439 97.4602 89.6655 0013368 48.8010 311.4372 15.14133935 55970 SOMP 2b 1 47445U 21006AJ 22027.74876414 .00001973 00000-0 11275-3 0 9996 2 47445 97.4567 89.4544 0013273 52.0813 308.1617 15.13788769 55970 IDEASSat 1 47458U 21006AX 22027.12100184 .00002576 00000-0 14674-3 0 9992 2 47458 97.4658 89.2039 0012393 52.7609 307.4751 15.13643213 55878 RSP-01 1 47925U 98067SB 22027.76518541 .00034475 00000-0 40621-3 0 9996 2 47925 51.6408 300.3610 0003255 142.4763 217.6458 15.61038425 49683 TAUSAT-1 1 47926U 98067SC 22027.77166209 .00047796 00000-0 48620-3 0 9995 2 47926 51.6394 297.3824 0004199 144.4312 215.6964 15.64656220 49716 Tsuru 1 47927U 98067SD 22027.46087467 .00031259 00000-0 38679-3 0 9990 2 47927 51.6399 302.8249 0003128 137.5252 222.5983 15.59807123 49624 STARS-EC 1 47928U 98067SE 22027.82468045 .00059385 00000-0 58133-3 0 9993 2 47928 51.6387 297.7366 0004643 194.4499 165.6365 15.65528325 49703 Maya-2 1 47929U 98067SF 22027.45657705 .00031203 00000-0 38632-3 0 9997 2 47929 51.6400 302.7941 0003245 135.8561 224.2692 15.59792278 49586 OPUSAT-II 1 47930U 98067SG 22027.01879954 .00064930 00000-0 61308-3 0 9992 2 47930 51.6384 300.6145 0004042 141.6422 218.4862 15.66396055 49618 GuaraniSat-1 1 47931U 98067SH 22027.06695175 .00032956 00000-0 40682-3 0 9994 2 47931 51.6408 304.7011 0003271 133.7349 226.3915 15.59841072 49563 CubeSX-Sirius-HSE 1 47951U 21022V 22027.90166354 .00001854 00000-0 12993-3 0 9995 2 47951 97.5437 290.3857 0019875 267.3122 92.5822 15.06286826 46833 CubeSX-HSE 1 47952U 21022W 22027.89357880 .00001656 00000-0 11642-3 0 9990 2 47952 97.5434 290.3894 0019773 267.1255 92.7702 15.06322921 46830 KSU-Cubesat 1 47954U 21022Y 22027.67520628 .00002704 00000-0 18677-3 0 9990 2 47954 97.5443 290.2304 0019827 266.7369 93.1590 15.06452795 46527 GRBAlpha 1 47959U 21022AD 22027.69400318 .00001716 00000-0 12049-3 0 9999 2 47959 97.5435 290.2169 0019639 268.3844 91.5142 15.06332715 45623 Orbicraft-Zorkiy 1 47960U 21022AE 22027.87847551 .00001756 00000-0 12290-3 0 9997 2 47960 97.5445 290.4795 0019731 267.1595 92.7381 15.06417109 46345 STECCO 1 47962U 21022AG 22027.86061309 .00003620 00000-0 24040-3 0 9995 2 47962 97.5418 290.8454 0014776 261.7644 162.6779 15.07762921 45671 DO-111 1 47963U 21022AH 22027.50418688 .00005543 00000-0 35118-3 0 9997 2 47963 97.5449 290.8904 0016750 258.5057 101.4291 15.09240444 45664 MO-110 1 47964U 21022AJ 22027.52663161 .00003240 00000-0 21361-3 0 9995 2 47964 97.5439 290.6794 0017587 259.1630 100.7619 15.08065319 45630 FEES 1 48082U 21022AL 22027.47158786 .00004732 00000-0 31176-3 0 9995 2 48082 97.5446 290.4902 0013994 256.5918 103.3750 15.07907751 45322 RamSat 1 48850U 98067SL 22027.50300337 .00018978 00000-0 27941-3 0 9998 2 48850 51.6414 308.3236 0002939 231.8108 128.2619 15.55453889 35302 MO-112 1 48868U 98067SP 22027.48389806 .00059696 00000-0 63977-3 0 9993 2 48868 51.6386 304.4396 0002646 177.6323 182.4684 15.63240997 34131 TUBIN 1 48900U 21059X 22027.86743706 .00001756 00000-0 10387-3 0 9993 2 48900 97.5329 158.6259 0009102 222.6663 252.8794 15.12731969 32650 IT-SPINS 1 49017U 21013G 22027.31423777 .00005590 00000-0 24167-3 0 9997 2 49017 51.5955 353.6993 0007045 282.2778 77.7410 15.23918690 32244 LEDSAT 1 49069U 21073D 22027.71813872 .00001213 00000-0 83225-4 0 9992 2 49069 97.5411 103.4164 0029140 58.0915 302.3142 15.07559374 24625 CUTE 1 49263U 21088D 22027.40649535 .00002523 00000-0 19659-3 0 9997 2 49263 97.6066 98.1437 0019957 184.7884 175.3153 15.01948464 18245 Binar-1 1 49272U 98067SR 22027.80827948 .00019429 00000-0 30248-3 0 9998 2 49272 51.6413 309.5967 0005897 145.3066 214.8310 15.53889349 17708 Maya-3 1 49273U 98067SS 22027.07336184 .00028528 00000-0 42623-3 0 9995 2 49273 51.6408 312.9395 0005936 140.4039 219.7386 15.54776903 17592 Maya-4 1 49274U 98067ST 22027.78430116 .00026862 00000-0 40232-3 0 9997 2 49274 51.6411 309.4376 0005879 142.1372 218.0034 15.54744094 17703 CUAVA-1 1 49275U 98067SU 22027.86766072 .00028758 00000-0 43280-3 0 9992 2 49275 51.6427 309.0055 0005359 147.9101 322.7486 15.54576564 17661 TeikyoSat 4 1 49396U 21102B 22027.78159597 .00001098 00000-0 91935-4 0 9990 2 49396 97.5543 90.0636 0018859 10.8218 349.3408 15.00329222 11954 Z-Sat 1 49399U 21102E 22027.75754334 .00000525 00000-0 44408-4 0 9997 2 49399 97.5610 90.3024 0020812 356.1145 3.9915 15.02069122 11962 KOSEN 1 1 49402U 21102H 22027.77731714 .00001344 00000-0 10400-3 0 9995 2 49402 97.5524 90.3584 0021911 341.2374 18.8042 15.02959941 11976 HO-113 1 50466U 21131B 22027.80289301 -.00000001 00000-0 14308-4 0 9995 2 50466 98.5947 105.0571 0004427 191.8275 168.2787 14.38437423 4691 Grizu-263a 1 51025U 22002AT 22027.37320989 .00005272 00000-0 30017-3 0 9993 2 51025 97.5176 96.8570 0013849 185.1057 175.0035 15.13179900 2084 DELFI-PQ 1 51074U 22002CU 22027.82402066 .00004088 00000-0 22541-3 0 9991 2 51074 97.5257 97.3459 0013809 216.4468 143.5825 15.14465418 2158 /EX
